Location: Holiday Acres Laynes 2 Mobile Home Park
(26.7249°N, 81.8671°W)
Time: 12:02:10
(UTC+00:00)

Lacrosse 5 rocket - Pass Details

Date: 25 November 2020
Orbit: 461 x 634 km, 57.0° (Epoch: 23 January)

Event Time Altitude Azimuth Distance (km) Brightness Sun altitude
Rises 23:38:01 0° 253° (WSW) 2,556 6.7 -14.2°
Reaches altitude 10° 23:41:00 10° 278° (W) 1,648 4.8 -14.8°
Maximum altitude 23:43:05 14° 313° (NW) 1,380 3.7 -15.3°
Drops below altitude 10° 23:45:10 10° 348° (NNW) 1,621 3.7 -15.7°
Enters shadow 23:46:40 - 4° (N) 2,025 4.0 -16.1°
